Change the Weather History Date:

Tuesday, October 8, 2013

  Actual Average Record
Temperature  
Mean Temperature 79 °F 81 °F  
Max Temperature 85 °F 87 °F 92 °F (2004)
Min Temperature 73 °F 74 °F 66 °F (1966)
Degree Days  
Heating Degree Days 0 0  
Month to date heating degree days 0 0  
Since 1 July heating degree days 0 0  
Cooling Degree Days 14 16  
Month to date cooling degree days 120 128  
Year to date cooling degree days 3457 3607  
Growing Degree Days 28 (Base 50)    
Moisture  
Dew Point 66 °F    
Average Humidity 70    
Maximum Humidity 84    
Minimum Humidity 55    
Precipitation  
Precipitation T in 0.05 in 0.43 in (1946)
Month to date precipitation 0.04 0.36  
Year to date precipitation 10.45 9.96  
Snow  
Snow 0.00 in - - ()
Month to date snowfall 0.0  
Since 1 July snowfall 0.0  
Since 1 September snowfall 0.0  
Snow Depth 0.00 in    
Sea Level Pressure  
Sea Level Pressure 30.04 in    
Wind  
Wind Speed 12 mph (NE)    
Max Wind Speed 23 mph    
Max Gust Speed 28 mph    
Visibility 10 miles    
Events Rain    
T = Trace of Precipitation, MM = Missing Value Source: NWS Daily Summary

Daily Weather History Graph

Daily Weather History Graph

Search for Another Location

Airport or City:

Trip Planner

Search our weather history database for the weather conditions in past years. The results will help you decide how hot, cold, wet, or windy it might be!

Date:

Astronomy

Oct. 08, 2013 Rise Set
Actual Time 6:25 AM HST 6:12 PM HST
Civil Twilight 6:02 AM HST 6:34 PM HST
Nautical Twilight 5:37 AM HST 7:00 PM HST
Astronomical Twilight 5:11 AM HST 7:26 PM HST
Moon 10:04 AM HST (10/8) 9:27 PM HST (10/8)
Length of Visible Light 12h 32m
Length of Day
11h 47m
Waxing Crescent, 18% of the Moon is Illuminated
Oct 8
Waxing Crescent
Oct 11
First Quarter
Oct 18
Full
Oct 26
Last Quarter
Nov 3
New

Hourly Weather History & Observations

Time (HST) Temp. Heat Index Dew Point Humidity Pressure Visibility Wind Dir Wind Speed Gust Speed Precip Events Conditions
12:53 AM 75.9 °F - 66.0 °F 71% 30.05 in 10.0 mi ENE 6.9 mph - N/A   Partly Cloudy
1:53 AM 75.9 °F - 66.0 °F 71% 30.04 in 10.0 mi NE 6.9 mph - N/A   Partly Cloudy
2:53 AM 75.9 °F - 66.9 °F 74% 30.03 in 10.0 mi ENE 9.2 mph - N/A   Scattered Clouds
3:53 AM 73.9 °F - 68.0 °F 82% 30.02 in 10.0 mi East 5.8 mph - 0.00 in   Scattered Clouds
4:53 AM 75.0 °F - 66.0 °F 73% 30.02 in 10.0 mi NE 6.9 mph - N/A   Scattered Clouds
5:53 AM 75.0 °F - 66.0 °F 73% 30.03 in 10.0 mi NE 9.2 mph - N/A   Scattered Clouds
6:53 AM 77.0 °F - 66.9 °F 71% 30.05 in 10.0 mi ENE 11.5 mph - N/A   Scattered Clouds
7:53 AM 79.0 °F - 66.9 °F 66% 30.06 in 10.0 mi NE 13.8 mph - N/A   Mostly Cloudy
8:53 AM 82.0 °F 83.8 °F 64.9 °F 56% 30.07 in 10.0 mi ENE 18.4 mph - N/A   Mostly Cloudy
9:53 AM 82.9 °F 84.6 °F 64.9 °F 54% 30.07 in 10.0 mi ENE 16.1 mph - N/A   Mostly Cloudy
10:53 AM 82.0 °F 84.5 °F 66.9 °F 60% 30.06 in 10.0 mi ENE 18.4 mph 26.5 mph 0.00 in   Mostly Cloudy
11:53 AM 84.0 °F 86.5 °F 66.9 °F 56% 30.05 in 10.0 mi NE 18.4 mph 26.5 mph 0.00 in   Mostly Cloudy
12:53 PM 79.0 °F - 66.0 °F 64% 30.04 in 10.0 mi East 6.9 mph 21.9 mph 0.00 in   Mostly Cloudy
1:53 PM 82.9 °F 84.4 °F 64.0 °F 53% 30.01 in 10.0 mi NE 17.3 mph 27.6 mph N/A   Mostly Cloudy
2:53 PM 82.9 °F 85.0 °F 66.0 °F 56% 30.01 in 10.0 mi ENE 16.1 mph 27.6 mph 0.00 in   Mostly Cloudy
3:53 PM 81.0 °F 83.0 °F 66.0 °F 60% 30.01 in 10.0 mi NE 17.3 mph 26.5 mph N/A   Mostly Cloudy
4:53 PM 77.0 °F - 68.0 °F 74% 30.01 in 9.0 mi NE 15.0 mph 29.9 mph 0.00 in Rain Light Rain
5:53 PM 78.1 °F - 66.0 °F 66% 30.02 in 10.0 mi NE 12.7 mph - 0.00 in   Mostly Cloudy
6:53 PM 78.1 °F - 66.9 °F 68% 30.04 in 10.0 mi ENE 11.5 mph - N/A   Mostly Cloudy
7:53 PM 77.0 °F - 66.9 °F 71% 30.05 in 10.0 mi ENE 9.2 mph 20.7 mph N/A   Mostly Cloudy
8:53 PM 75.9 °F - 66.9 °F 74% 30.06 in 10.0 mi NE 10.4 mph - N/A   Mostly Cloudy
9:53 PM 77.0 °F - 66.0 °F 69% 30.06 in 10.0 mi NE 8.1 mph - N/A   Partly Cloudy
10:53 PM 75.9 °F - 66.0 °F 71% 30.05 in 10.0 mi NE 8.1 mph - N/A   Partly Cloudy
11:53 PM 77.0 °F - 64.9 °F 66% 30.03 in 10.0 mi NE 10.4 mph - N/A   Partly Cloudy